User: anonymous   Login
Location: Norwich
(52.6280°N, 1.3030°E)
Time: 21:35:29
(UTC+01:00)
Language:

APEX - Orbit

View from above orbital plane
View from above orbital plane
View from above satellite
View from above satellite

Ground track
Ground track

The orbit data is extracted from the following two-line orbital elements,

1 23191U 94046A   17088.90515593 +.00023365 +00000-0 +77045-3 0  9995
2 23191 069.9254 043.1523 0609021 355.8766 003.7457 14.36890704105126
Epoch (UTC): 29 March 2017 21:43:25
Eccentricity: 0.0609021
inclination: 69.9254°
perigee height: 333 km
apogee height: 1204 km
right ascension of ascending node: 43.1523°
argument of perigee: 355.8766°
revolutions per day: 14.36890704
mean anomaly at epoch: 3.7457°
orbit number at epoch: 10512

The dashed part of the orbit path shows where the satellite is in the earth's shadow,  

DLR